Weather History for Grand Forks, ND

Change the Weather History Date:

Sunday, March 11, 2012

  Actual Average Record
Temperature  
Mean Temperature 42 °F 22 °F  
Max Temperature 56 °F 31 °F 56 °F (1981)
Min Temperature 28 °F 14 °F -33 °F (1948)
Degree Days  
Heating Degree Days 23 43  
Month to date heating degree days 479 497  
Since 1 July heating degree days 6316 7647  
Cooling Degree Days 0 0  
Month to date cooling degree days 0 0  
Year to date cooling degree days 0 0  
Moisture  
Dew Point 37 °F    
Average Humidity 79    
Maximum Humidity 92    
Minimum Humidity 66    
Precipitation  
Precipitation 0.00 in 0.04 in 0.38 in (1976)
Month to date precipitation 0.25 0.33  
Year to date precipitation 1.14 1.40  
Snow  
Snow 0.00 in 0.30 in - ()
Month to date snowfall 5.0 3.3  
Since 1 July snowfall 21.9 40.5  
Snow Depth 2.00 in    
Sea Level Pressure  
Sea Level Pressure 29.72 in    
Wind  
Wind Speed 12 mph (SSE)    
Max Wind Speed 23 mph    
Max Gust Speed 30 mph    
Visibility 10 miles    
Events      
T = Trace of Precipitation, MM = Missing Value Source: NWS Daily Summary

Daily Weather History Graph

Daily Weather History Graph

Search for Another Location

Airport:

Trip Planner

Search our weather history database for the weather conditions in past years. The results will help you decide how hot, cold, wet, or windy it might be!

Date:

Astronomy

Mar. 11, 2012 Rise Set
Actual Time 7:48 AM CDT 7:29 PM CDT
Civil Twilight 7:17 AM CDT 7:59 PM CDT
Nautical Twilight 6:42 AM CDT 8:36 PM CDT
Astronomical Twilight 6:05 AM CDT 9:12 PM CDT
Moon No Moon Rise 9:03 AM CDT (3/11)
Length of Visible Light 12h 42m
Length of Day
11h 40m
Waning Gibbous, 85% of the Moon is Illuminated
Mar 11
Waning Gibbous
Mar 14
Last Quarter
Mar 22
New
Mar 30
First Quarter
Apr 6
Full

Hourly Weather History & Observations

Time (CDT) Temp. Windchill Dew Point Humidity Pressure Visibility Wind Dir Wind Speed Gust Speed Precip Events Conditions
12:53 AM 33.1 °F 26.1 °F 30.0 °F 89% 29.81 in 10.0 mi SSE 8.1 mph - N/A   Clear
1:53 AM 32.0 °F 25.6 °F 28.9 °F 88% 29.82 in 9.0 mi South 6.9 mph - N/A   Clear
3:53 AM 30.9 °F 26.2 °F 28.9 °F 92% 29.82 in 7.0 mi SE 4.6 mph - N/A   Clear
4:53 AM 30.9 °F 23.5 °F 28.9 °F 92% 29.80 in 8.0 mi SE 8.1 mph - N/A   Clear
5:53 AM 28.9 °F 22.8 °F 26.1 °F 89% 29.80 in 7.0 mi SSE 5.8 mph - N/A   Clear
6:53 AM 30.2 °F 24.3 °F 28.4 °F 93% 29.75 in 9.0 mi SE 5.8 mph - N/A   Clear
7:53 AM 30.9 °F 24.3 °F 28.0 °F 89% 29.78 in 10.0 mi SSE 6.9 mph - N/A   Clear
8:53 AM 34.0 °F 27.2 °F 30.0 °F 85% 29.78 in 10.0 mi SSE 8.1 mph - N/A   Clear
9:53 AM 37.0 °F 29.8 °F 32.0 °F 82% 29.78 in 10.0 mi SSE 10.4 mph - N/A   Partly Cloudy
10:53 AM 39.9 °F 32.9 °F 34.0 °F 79% 29.77 in 10.0 mi SSE 11.5 mph - N/A   Partly Cloudy
11:53 AM 43.0 °F 36.0 °F 35.1 °F 74% 29.77 in 10.0 mi SSE 13.8 mph - N/A   Clear
12:53 PM 46.9 °F - 39.0 °F 74% 29.75 in 10.0 mi SSE 12.7 mph - N/A   Partly Cloudy
1:53 PM 50.0 °F - 42.1 °F 74% 29.72 in 10.0 mi SSE 15.0 mph - N/A   Clear
2:53 PM 53.1 °F - 43.0 °F 69% 29.69 in 10.0 mi SSE 13.8 mph - N/A   Clear
3:53 PM 53.1 °F - 44.1 °F 71% 29.68 in 10.0 mi South 18.4 mph 25.3 mph N/A   Partly Cloudy
4:53 PM 55.0 °F - 46.0 °F 72% 29.66 in 10.0 mi South 16.1 mph 28.8 mph N/A   Partly Cloudy
5:53 PM 55.9 °F - 46.9 °F 72% 29.65 in 10.0 mi SSE 19.6 mph 26.5 mph N/A   Partly Cloudy
6:53 PM 54.0 °F - 46.9 °F 77% 29.63 in 10.0 mi South 17.3 mph 24.2 mph N/A   Partly Cloudy
7:53 PM 51.1 °F - 45.0 °F 80% 29.65 in 10.0 mi South 15.0 mph - N/A   Mostly Cloudy
8:53 PM 48.0 °F - 43.0 °F 83% 29.65 in 10.0 mi South 12.7 mph - N/A   Mostly Cloudy
9:53 PM 46.9 °F - 43.0 °F 86% 29.64 in 10.0 mi SSE 13.8 mph - N/A   Scattered Clouds
10:53 PM 46.9 °F - 42.1 °F 83% 29.64 in 10.0 mi South 12.7 mph - N/A   Scattered Clouds
11:53 PM 45.0 °F 38.5 °F 41.0 °F 86% 29.63 in 10.0 mi SSE 13.8 mph - N/A   Partly Cloudy
12:53 AM 44.1 °F 38.1 °F 39.9 °F 85% 29.60 in 10.0 mi SSE 11.5 mph - N/A   Scattered Clouds